Probability
0 0 0 0 0 0 0 0 0 0 0 0 0 0 0 0 0 0 0 0 0 0 0 0 0 0 0 0 0 0 1 2 2 1 0 0 0 0
0 0 0 0 0 0 0 0 0 0 0 0 0 0 0 0 0 0 0 0 0 0 0 0 0 0 0 0 0 0 0 1 2 2 1 1 1 0
0 0 0 0 0 0 0 0 0 0 0 0 0 0 0 0 0 0 0 0 0 0 0 0 0 0 0 0 0 0 0 0 1 2 2 2 2 1
0 0 0 0 0 0 0 0 0 0 0 0 0 0 0 0 0 0 0 0 0 0 0 0 0 0 0 0 0 0 0 0 0 1 1 2 2 2
0 0 0 0 0 0 0 0 0 0 0 0 0 0 0 0 0 0 0 0 0 0 0 0 0 0 0 0 0 0 0 0 0 0 0 1 1 1
0 0 0 0 0 0 0 0 0 0 0 0 0 0 0 0 0 0 0 0 0 0 0 0 0 0 0 0 0 0 0 0 0 0 0 0 0 0
0 0 0 0 0 0 0 0 0 0 0 0 0 0 0 0 0 0 0 0 0 0 0 0 0 0 0 0 0 0 0 0 0 0 0 0 0 0
0 0 0 0 0 0 0 0 0 0 0 0 0 0 0 0 0 0 0 0 0 0 0 0 0 0 0 0 0 0 0 0 0 0 0 0 0 0
0 0 0 0 0 0 0 0 0 0 0 0 0 0 0 0 0 0 0 0 0 0 0 0 0 0 0 0 0 0 0 0 0 0 0 0 0 0
0 0 0 0 0 0 0 0 0 0 0 0 0 0 0 0 0 0 0 0 0 0 0 0 0 0 0 0 0 0 0 0 0 0 0 0 0 0
0 0 0 0 0 0 0 0 0 0 0 0 0 0 0 0 0 0 0 0 0 0 0 0 0 0 0 0 0 0 0 0 0 0 0 0 0 0
0 0 0 0 0 0 0 0 0 0 0 0 0 0 0 0 0 0 0 0 0 0 0 0 0 0 0 0 0 0 0 0 0 0 0 0 0 0
0 0 0 0 0 0 0 0 0 0 0 0 0 0 0 0 0 0 0 0 0 0 0 0 0 0 0 0 0 0 0 0 0 0 0 0 0 0
0 0 0 0 0 0 0 0 0 0 0 0 0 0 0 0 0 0 0 0 0 0 0 0 0 0 0 0 0 0 0 0 0 0 0 0 0 0
0 0 0 0 0 0 0 0 0 0 0 0 0 0 0 0 0 0 0 0 0 0 0 0 0 0 0 0 0 0 0 0 0 0 0 0 0 0
0 0 0 0 0 0 0 0 0 0 0 0 0 0 0 0 0 0 0 0 0 0 0 0 0 0 0 0 0 0 0 0 0 0 0 0 0 0
0 0 0 0 0 0 0 0 0 0 0 0 0 0 0 0 0 0 0 0 0 0 0 0 0 0 0 0 0 0 0 0 0 0 0 0 0 0
0 0 0 0 0 0 0 0 0 0 0 0 0 0 0 0 0 0 0 0 0 0 0 0 0 0 0 0 0 0 0 0 0 0 0 0 0 0
0 0 0 0 0 0 0 0 0 0 0 0 0 0 0 0 0 0 0 0 0 0 0 0 0 0 0 0 0 0 0 0 0 0 0 0 0 0
0 0 0 0 0 0 0 0 0 0 0 0 0 0 0 0 0 0 0 0 0 0 0 0 0 0 0 0 0 0 0 0 0 0 0 0 0 0
0 0 0 0 0 0 0 0 0 0 0 0 0 0 0 0 0 0 0 0 0 0 0 0 0 0 0 0 0 0 0 0 0 0 0 0 0 0
0 0 0 0 0 0 0 0 0 0 0 0 0 0 0 0 0 0 0 0 0 0 0 0 0 0 0 0 0 0 0 0 0 0 0 0 0 0
0 0 0 0 0 0 0 0 0 0 0 0 0 0 0 0 0 0 0 0 0 0 0 0 0 0 0 0 0 0 0 0 0 0 0 0 0 0
Wind_Speed
7 7 7 5 5 5 5 5 6 7 6 3 2 2 2 2 4 4 4 7 9 10 10 11 12 13 14 15 16 17 17 18 18 19 19 20 20 20
5 6 6 5 4 4 4 4 5 7 7 3 3 2 2 2 4 4 4 8 9 9 10 11 12 13 13 14 15 16 17 18 18 18 19 19 19 19
4 4 5 4 4 4 4 4 4 5 8 5 2 2 2 3 4 3 4 4 5 8 10 11 12 12 13 13 14 14 15 16 16 17 17 18 19 19
4 4 4 3 4 3 3 4 4 5 6 8 4 2 3 3 4 4 4 4 4 8 10 12 12 12 12 12 13 13 14 14 15 16 17 18 18 19
4 4 4 3 3 3 3 3 3 3 4 6 6 3 3 2 3 4 4 4 5 6 9 10 11 12 12 13 13 13 14 14 15 15 16 16 17 17
3 3 3 3 3 3 3 3 3 3 3 4 5 3 3 2 2 3 5 4 5 5 6 7 9 11 11 13 14 14 14 14 15 15 15 16 16 16
1 1 1 0 1 1 1 2 3 3 3 3 4 3 3 3 3 3 5 6 5 3 5 5 5 6 7 9 11 13 14 15 15 15 15 15 15 15
1 0 0 0 1 2 2 2 2 3 3 3 3 4 5 4 3 4 4 5 5 2 4 7 4 6 6 5 10 13 14 15 15 15 15 15 15 15
1 0 1 1 1 1 2 2 2 3 3 3 4 4 4 4 5 5 5 6 7 5 5 8 4 6 6 6 12 13 14 15 15 14 15 15 14 14
1 1 0 1 1 2 2 2 2 2 3 2 3 4 4 3 4 5 6 7 6 4 2 6 5 6 7 6 10 12 13 14 15 15 15 15 15 14
1 0 0 0 2 3 1 2 2 2 4 4 5 6 7 6 5 3 3 4 6 4 1 4 5 7 7 6 6 11 12 14 15 15 15 15 15 14
0 0 0 1 1 2 0 1 2 3 3 4 4 5 5 4 4 3 3 4 5 5 2 3 3 5 7 5 4 5 7 11 14 15 15 15 15 9
0 1 1 1 2 2 1 1 2 3 2 2 3 3 3 3 3 3 3 3 5 5 3 3 4 4 5 7 6 5 5 6 7 9 11 13 14 11
1 1 1 1 2 2 2 3 4 3 1 2 2 2 3 3 3 4 4 5 5 7 6 5 5 5 6 8 8 6 6 6 6 6 6 10 11 12
1 1 1 2 2 2 3 3 2 1 1 2 3 3 3 3 4 4 4 5 6 6 5 5 5 6 6 7 8 8 8 7 5 6 7 7 7 7
1 1 2 2 2 2 2 2 2 1 1 2 3 3 3 3 3 3 4 5 5 5 5 5 5 6 6 7 8 9 7 7 7 7 8 8 7 5
0 1 1 1 1 1 1 1 1 1 2 2 2 3 3 3 3 3 3 3 4 5 6 5 4 5 6 7 7 8 7 7 7 7 8 9 8 6
1 0 1 1 1 2 2 2 2 1 2 2 2 3 3 3 4 3 3 3 4 5 5 5 6 6 4 4 6 7 6 7 7 7 6 8 10 7
1 1 1 2 2 2 2 2 3 2 2 2 2 3 3 3 3 4 4 4 4 5 5 4 4 4 6 7 6 4 6 7 7 7 6 6 9 9
1 1 2 2 2 2 2 2 3 2 2 2 2 3 3 3 3 4 4 4 4 5 5 4 4 4 5 7 7 7 9 8 7 7 7 6 7 10
1 1 2 2 2 2 2 2 2 3 3 3 3 3 3 3 3 4 4 5 4 4 5 6 6 7 5 4 6 7 6 8 9 7 7 7 8 7
1 2 2 2 2 2 2 2 2 3 3 3 3 3 3 3 4 4 4 4 4 4 6 6 6 5 3 4 7 8 9 8 9 11 10 8 6 6
2 2 2 2 2 2 2 3 3 4 3 3 3 3 3 3 4 4 4 4 4 5 5 5 5 4 4 4 6 7 9 9 7 7 7 10 12 13
Wind_Direction
234 234 237 240 237 239 238 235 248 268 270 250 250 264 275 276 297 296 292 296 291 292 293 294 293 292 290 288 288 288 288 287 287 285 284 283 282 281
233 234 237 241 241 240 239 241 240 252 265 257 245 265 277 297 302 294 292 298 291 295 297 298 298 298 298 296 294 293 291 289 289 288 286 284 283 282
236 237 244 243 243 242 240 242 245 247 262 272 255 267 271 288 300 296 294 295 300 302 304 305 305 305 304 303 302 300 297 294 293 292 290 289 288 286
236 238 245 250 252 251 246 247 248 247 255 270 278 272 265 280 296 302 307 304 296 307 310 309 307 308 307 309 309 304 301 299 297 294 291 290 289 287
229 232 240 237 250 259 260 260 261 263 257 265 274 273 268 289 304 306 303 298 303 306 308 308 308 308 309 313 313 310 304 299 296 294 293 293 292 291
225 229 232 226 241 256 259 267 273 271 270 272 276 282 285 306 317 310 312 311 306 307 310 313 312 310 311 315 312 311 309 303 297 295 294 293 292 292
211 230 259 290 292 275 279 283 279 272 275 275 279 289 294 315 315 313 306 311 301 300 315 310 309 306 307 309 307 306 307 307 304 299 296 293 292 290
196 230 331 347 340 337 324 307 281 271 276 276 280 284 291 299 307 306 308 316 305 319 317 301 298 294 296 297 304 308 308 309 308 307 303 296 292 290
200 203 354 7 338 314 316 314 307 302 282 267 271 278 290 302 309 304 296 290 285 299 309 292 294 291 294 298 306 307 309 310 309 309 308 305 299 294
113 135 188 337 356 343 322 313 309 323 318 296 280 287 297 304 292 289 292 294 285 275 283 283 295 294 300 297 302 305 310 313 313 312 312 310 305 299
66 66 141 121 7 11 348 311 313 326 348 338 320 316 321 322 322 314 307 303 295 290 287 279 296 307 301 294 303 309 311 313 314 314 313 311 309 306
50 28 18 27 9 17 325 296 302 316 337 335 332 330 325 320 323 300 288 289 293 292 310 308 301 322 307 295 306 313 311 310 313 313 311 311 315 313
245 304 315 5 358 6 359 303 310 324 322 315 315 321 324 320 319 315 298 277 277 275 292 315 295 300 287 298 303 305 306 311 315 310 308 311 315 315
255 275 291 347 353 355 359 354 347 342 326 318 313 310 314 316 315 312 306 298 283 277 282 287 281 288 291 290 293 304 308 304 309 311 312 313 313 310
280 283 316 351 2 4 8 358 346 328 320 307 300 298 304 306 312 312 312 309 297 291 288 283 281 285 279 279 288 296 307 308 305 313 316 313 309 312
342 2 10 22 22 14 4 347 329 310 293 282 288 294 302 307 310 315 313 319 312 303 298 298 293 289 284 281 282 289 296 298 308 312 312 307 303 296
98 11 359 350 346 332 330 318 318 321 310 306 298 300 305 310 309 314 310 313 305 306 313 318 312 295 278 275 283 284 291 296 302 312 315 309 304 301
98 189 254 276 281 291 298 305 308 312 314 311 301 297 301 305 306 308 307 302 301 302 306 314 323 321 313 291 264 278 292 298 306 307 304 305 304 307
126 208 238 255 267 275 277 279 283 291 293 286 287 289 293 296 297 300 304 304 303 301 302 308 317 319 317 310 304 301 304 306 307 306 303 299 299 304
206 222 240 250 257 261 266 271 280 290 285 278 274 276 279 283 288 292 296 298 303 304 304 304 302 303 294 291 293 298 301 297 303 303 308 307 299 301
256 247 247 250 255 258 262 264 266 270 273 274 273 274 277 280 281 284 290 296 296 296 299 299 301 304 296 289 288 294 300 304 304 300 305 311 314 314
269 263 261 256 254 255 257 258 261 261 266 267 269 271 273 271 277 283 286 288 287 287 290 294 302 307 295 284 291 297 306 314 317 314 306 298 301 299
262 264 266 264 258 253 249 249 253 258 255 255 262 268 271 272 274 276 279 279 283 291 298 300 304 300 292 290 293 297 303 310 317 322 317 316 311 303